Osceola, WI

11:07 PM CDT on October 23, 2017 (GMT -0500)
Simenstad Municipal

Weather History for KOEO - May, 2013

Change the Weather History Date:

Friday, May 24, 2013

  Actual Average (KANE) Record (KANE)
Temperature  
Mean Temperature 50 °F -  
Max Temperature 67 °F 66 °F 82 °F (2016)
Min Temperature 33 °F 46 °F 37 °F (2013)
Degree Days  
Heating Degree Days 15    
Moisture  
Dew Point 38 °F    
Average Humidity 61    
Maximum Humidity 98    
Minimum Humidity 33    
Precipitation  
Precipitation 0.06 in - - ()
Sea Level Pressure  
Sea Level Pressure 30.35 in    
Wind  
Wind Speed 4 mph (SE)    
Max Wind Speed 14 mph    
Max Gust Speed 21 mph    
Visibility 10 miles    
Events Rain    
Averages and records for this station are not official NWS values.
T = Trace of Precipitation, MM = Missing Value Source: NWS Daily Summary

Daily Weather History Graph

Daily Weather History Graph

Search for Another Location

Airport or City:

Trip Planner

Search our weather history database for the weather conditions in past years. The results will help you decide how hot, cold, wet, or windy it might be!

Date:

Astronomy

May. 24, 2013 Rise Set
Actual Time 5:31 AM CDT 8:44 PM CDT
Civil Twilight 4:55 AM CDT 9:20 PM CDT
Nautical Twilight 4:09 AM CDT 10:06 PM CDT
Astronomical Twilight 3:12 AM CDT 11:04 PM CDT
Moon 8:25 PM CDT 5:06 AM CDT
Length of Visible Light 16h 24m
Length of Day
15h 12m
Full, 100% of the Moon is Illuminated
May 24
Full
May 24
Full
May 31
Last Quarter
Jun 8
New
Jun 16
First Quarter

Hourly Weather History & Observations

Time (CDT) Temp. Windchill Dew Point Humidity Pressure Visibility Wind Dir Wind Speed Gust Speed Precip Events Conditions
12:15 AM 42.3 °F - 32.0 °F 67% 30.39 in 10.0 mi Calm Calm - N/A   Clear
12:35 AM 41.2 °F - 33.4 °F 74% 30.39 in 10.0 mi Calm Calm - N/A   Clear
12:55 AM 39.6 °F - 32.4 °F 75% 30.39 in 10.0 mi Calm Calm - N/A   Clear
1:15 AM 39.6 °F - 32.4 °F 75% 30.39 in 10.0 mi Calm Calm - N/A   Clear
1:35 AM 37.9 °F - 33.4 °F 84% 30.38 in 10.0 mi Calm Calm - N/A   Clear
1:55 AM 37.9 °F - 33.8 °F 85% 30.39 in 10.0 mi Calm Calm - N/A   Clear
2:15 AM 36.5 °F - 33.8 °F 90% 30.39 in 10.0 mi Calm Calm - N/A   Clear
2:35 AM 34.9 °F - 33.3 °F 94% 30.39 in 10.0 mi Calm Calm - N/A   Clear
2:55 AM 34.9 °F - 33.4 °F 94% 30.39 in 10.0 mi Calm Calm - N/A   Clear
3:15 AM 35.4 °F - 34.2 °F 95% 30.39 in 10.0 mi Calm Calm - N/A   Clear
3:35 AM 34.7 °F - 33.8 °F 97% 30.39 in 10.0 mi Calm Calm - N/A   Clear
3:55 AM 33.1 °F - 32.4 °F 97% 30.39 in 10.0 mi Calm Calm - N/A   Clear
4:15 AM 34.7 °F - 33.6 °F 96% 30.39 in 10.0 mi Calm Calm - N/A   Clear
4:35 AM 33.1 °F - 32.4 °F 97% 30.39 in 10.0 mi Calm Calm - N/A   Clear
4:55 AM 33.1 °F - 32.5 °F 98% 30.39 in 10.0 mi Calm Calm - N/A   Clear
5:15 AM 34.7 °F - 33.8 °F 97% 30.40 in 10.0 mi Calm Calm - N/A   Clear
5:35 AM 33.4 °F - 32.5 °F 96% 30.41 in 10.0 mi Calm Calm - N/A   Clear
5:55 AM 34.3 °F - 33.6 °F 97% 30.41 in 10.0 mi Calm Calm - N/A   Clear
6:15 AM 33.4 °F - 32.9 °F 98% 30.42 in 10.0 mi Calm Calm - N/A   Clear
6:35 AM 35.4 °F - 34.5 °F 97% 30.43 in 10.0 mi Calm Calm - N/A   Clear
6:55 AM 38.1 °F - 36.9 °F 95% 30.44 in 10.0 mi Calm Calm - N/A   Clear
7:15 AM 43.2 °F 39.7 °F 36.3 °F 77% 30.43 in 10.0 mi ESE 5.8 mph - N/A   Clear
7:35 AM 45.5 °F 41.3 °F 34.9 °F 66% 30.43 in 10.0 mi ESE 8.1 mph - N/A   Clear
7:55 AM 47.3 °F - 35.1 °F 62% 30.44 in 10.0 mi SE 4.6 mph - N/A   Clear
8:15 AM 49.1 °F - 35.1 °F 58% 30.44 in 10.0 mi SE 8.1 mph - N/A   Clear
8:35 AM 50.4 °F - 35.6 °F 57% 30.44 in 10.0 mi SE 8.1 mph - N/A   Clear
8:55 AM 51.8 °F - 36.0 °F 55% 30.43 in 10.0 mi ESE 11.5 mph - N/A   Clear
9:15 AM 53.6 °F - 37.4 °F 54% 30.43 in 10.0 mi ESE 9.2 mph - N/A   Clear
9:35 AM 54.5 °F - 34.0 °F 46% 30.42 in 10.0 mi SSE 9.2 mph - N/A   Clear
9:55 AM 55.6 °F - 34.5 °F 45% 30.42 in 10.0 mi SE 12.7 mph 17.3 mph N/A   Clear
10:15 AM 56.3 °F - 34.2 °F 43% 30.41 in 10.0 mi SE 11.5 mph 16.1 mph N/A   Clear
10:35 AM 57.4 °F - 34.7 °F 43% 30.41 in 10.0 mi SE 12.7 mph 18.4 mph N/A   Clear
10:55 AM 58.1 °F - 34.5 °F 41% 30.40 in 10.0 mi SE 13.8 mph 20.7 mph N/A   Clear
11:15 AM 59.0 °F - 34.7 °F 40% 30.40 in 10.0 mi SE 12.7 mph 19.6 mph N/A   Clear
11:35 AM 59.7 °F - 36.5 °F 42% 30.40 in 10.0 mi ESE 9.2 mph - N/A   Clear
11:55 AM 60.8 °F - 36.1 °F 40% 30.39 in 10.0 mi ESE 12.7 mph 18.4 mph N/A   Clear
12:15 PM 61.3 °F - 34.2 °F 36% 30.39 in 10.0 mi South 11.5 mph - N/A   Clear
12:35 PM 61.9 °F - 33.1 °F 34% 30.38 in 10.0 mi SE 8.1 mph 16.1 mph N/A   Clear
12:55 PM 62.4 °F - 36.0 °F 37% 30.37 in 10.0 mi SE 9.2 mph - N/A   Clear
1:15 PM 63.0 °F - 35.1 °F 35% 30.37 in 10.0 mi South 12.7 mph 18.4 mph N/A   Clear
1:35 PM 63.9 °F - 34.3 °F 33% 30.35 in 10.0 mi SE 10.4 mph 18.4 mph N/A   Clear
1:55 PM 64.4 °F - 36.9 °F 36% 30.34 in 10.0 mi ESE 12.7 mph 16.1 mph N/A   Clear
2:15 PM 64.9 °F - 35.4 °F 33% 30.33 in 10.0 mi SE 11.5 mph 16.1 mph N/A   Clear
2:35 PM 64.6 °F - 36.9 °F 36% 30.31 in 10.0 mi SE 13.8 mph - N/A   Clear
2:55 PM 63.3 °F - 36.7 °F 37% 30.30 in 10.0 mi SE 13.8 mph 19.6 mph N/A   Clear
3:15 PM 65.3 °F - 36.7 °F 35% 30.30 in 10.0 mi SSE 9.2 mph 17.3 mph N/A   Clear
3:35 PM 65.8 °F - 37.4 °F 35% 30.30 in 10.0 mi SE 11.5 mph - N/A   Clear
3:55 PM 65.5 °F - 38.7 °F 37% 30.29 in 10.0 mi SE 11.5 mph - N/A   Clear
4:15 PM 67.3 °F - 37.4 °F 33% 30.29 in 10.0 mi South 12.7 mph 20.7 mph N/A   Clear
4:35 PM 65.7 °F - 36.1 °F 34% 30.30 in 10.0 mi South 11.5 mph - N/A   Clear
4:55 PM 64.4 °F - 39.0 °F 39% 30.29 in 10.0 mi SSE 8.1 mph - N/A   Clear
5:15 PM 64.0 °F - 38.3 °F 39% 30.30 in 10.0 mi SE 9.2 mph - N/A   Clear
5:35 PM 63.7 °F - 40.1 °F 42% 30.30 in 10.0 mi SSE 8.1 mph - N/A   Clear
5:55 PM 64.4 °F - 40.8 °F 42% 30.32 in 10.0 mi SSE 4.6 mph - N/A   Scattered Clouds
6:15 PM 64.6 °F - 40.6 °F 42% 30.32 in 10.0 mi SSE 5.8 mph - N/A   Clear
6:35 PM 64.4 °F - 41.4 °F 43% 30.30 in 10.0 mi SE 4.6 mph - N/A   Clear
6:55 PM 63.9 °F - 42.3 °F 45% 30.29 in 10.0 mi SSE 8.1 mph - N/A   Clear
7:15 PM 63.0 °F - 42.8 °F 48% 30.27 in 10.0 mi SE 4.6 mph - N/A   Clear
7:35 PM 61.9 °F - 43.7 °F 51% 30.26 in 10.0 mi SE 6.9 mph - N/A   Clear
7:55 PM 61.5 °F - 43.3 °F 51% 30.25 in 10.0 mi ESE 9.2 mph - N/A   Clear
8:15 PM 60.8 °F - 44.4 °F 55% 30.25 in 10.0 mi ESE 6.9 mph - N/A   Scattered Clouds
8:35 PM 60.1 °F - 44.6 °F 57% 30.26 in 10.0 mi SE 5.8 mph - N/A   Clear
8:55 PM 60.1 °F - 44.8 °F 57% 30.27 in 10.0 mi SSE 4.6 mph - N/A   Mostly Cloudy
9:15 PM 60.1 °F - 44.6 °F 57% 30.27 in 10.0 mi SE 4.6 mph - N/A   Overcast
9:35 PM 60.1 °F - 44.6 °F 57% 30.28 in 10.0 mi SE 5.8 mph - N/A   Scattered Clouds
9:55 PM 60.1 °F - 44.6 °F 57% 30.28 in 10.0 mi SE 5.8 mph - N/A   Mostly Cloudy
10:15 PM 59.5 °F - 45.5 °F 60% 30.29 in 10.0 mi SE 5.8 mph - N/A Rain Light Rain
10:35 PM 58.8 °F - 46.8 °F 64% 30.29 in 10.0 mi SE 4.6 mph - N/A Rain Light Rain
10:55 PM 57.2 °F - 48.4 °F 72% 30.30 in 10.0 mi SSW 4.6 mph - N/A Rain Light Rain
11:15 PM 55.4 °F - 50.0 °F 82% 30.28 in 10.0 mi East 4.6 mph - 0.01 in Rain Light Rain
11:35 PM 55.4 °F - 49.3 °F 80% 30.29 in 10.0 mi ESE 5.8 mph - 0.02 in Rain Rain
11:55 PM 54.5 °F - 50.0 °F 85% 30.29 in 10.0 mi SE 3.5 mph - 0.06 in Rain Rain